Location: Bégole
(43.1574°N, 0.3291°E)
Time: 03:27:38
(UTC+00:00)

Cosmos 1867 - Pass Details

Date: 28 January 2023
Orbit: 778 x 797 km, 65.0° (Epoch: 27 March)

Event Time Altitude Azimuth Distance (km) Brightness Sun altitude
Rises 17:35:16 0° 329° (NNW) 3,310 7.0 -5.9°
Reaches altitude 10° 17:37:46 10° 333° (NNW) 2,377 6.2 -6.4°
Maximum altitude 17:43:08 56° 52° (NE) 949 3.7 -7.3°
Drops below altitude 10° 17:48:28 10° 130° (SE) 2,360 5.7 -8.2°
Sets 17:50:56 0° 135° (SE) 3,284 6.5 -8.6°
